Weather Roundup
Issued by NWS Springfield, MO

Home | Current Version | Previous Version | Text Only | Print | Product List | Glossary On
Versions: 1 2 3 4 5 6 7 8 9 10 11 12 13 14 15 16 17 18 19 20 21 22 23 24 25 26 27 28 29 30 31 32 33 34 35 36 37 38 39 40 41 42 43 44 45 46 47 48 49 50
000
NZUS99 KSGF 300207
HRRSGF

HOURLY WEATHER
NATIONAL WEATHER SERVICE SPRINGFIELD MO
900 PM CDT SAT APR 29 2017

......SGF CWA......

CITY           SKY/WX    TMP DP  RH WIND       PRES   REMARKS
SPRINGFIELD    CLOUDY    64  62  93 S12       29.69F
JOPLIN         LGT RAIN  60  59  96 NE5       29.66R
ROLLA          RAIN      57  32  38 NE15      29.75F
OSAGE BEACH    RAIN      57  56  96 NE13      29.75F
BRANSON          N/A     63  63 100 NE6       29.71F

......SURROUNDING SGF CWA......

CITY           SKY/WX    TMP DP  RH WIND       PRES   REMARKS
CHANUTE        RAIN      54  52  93 E30G40    29.59F FOG
PARSONS        LGT RAIN  61  58  90 E13G40    29.58F
COFFEYVILLE    RAIN      57  56  96 NE16G35   29.63S
EMPORIA        LGT RAIN  45  45 100 NE29G36   29.69F
GROVE OK       DRIZZLE   66  64  94 CALM      29.63R
ROGERS AR      TSTM      63  63 100 SW8       29.72R VSB 3/4
SILOAM SPRINGS CLOUDY    64  61  88 SE13G20   29.65F THUNDER
HARRISON AR    CLOUDY    63  63 100 N5        29.70F
NEAR YELLVILLE CLOUDY    66  63  88 CALM      29.69F

......KANSAS AND MISSOURI......

CITY           SKY/WX    TMP DP  RH WIND       PRES   REMARKS
KANSAS CTY INT RAIN      44  42  93 NE12      29.88R
DOWNTOWN KC    RAIN     N/A N/A N/A N6        29.90R
COLUMBIA       LGT RAIN  49  49 100 E7        29.85F
SEDALIA        LGT RAIN  50  50 100 NE7       29.85R
ST JOSEPH      CLOUDY    44  44 100 NE13      29.92R
ST LOUIS       TSTM      53  50  89 NW6       29.91R FOG
SPIRIT OF STL  RAIN      52  52 100 CALM      29.90R FOG
KIRKSVILLE     CLOUDY    42  31  64 NE16G26   29.89F
WICHITA        LGT RAIN  46  45  96 N22G31    29.72R FOG
TOPEKA         LGT RAIN  45  45 100 NE14      29.84F FOG
OLATHE         HVY RAIN  45  45 100 N10       29.86R FOG

......TENNESSEE......

CITY           SKY/WX    TMP DP  RH WIND       PRES   REMARKS
MEMPHIS        TSTM      70  65  84 SW16G30   29.86R
NASHVILLE      PTCLDY    78  65  63 S9        29.97R

......ARKANSAS.......

CITY           SKY/WX    TMP DP  RH WIND       PRES   REMARKS
FAYETTEVILLE   TSTM      63  63 100 VRB7      29.69R FOG
FT SMITH       CLOUDY    70  65  84 CALM      29.60R
LITTLE ROCK    TSTM      71  70  96 E5        29.71R FOG

......OKLAHOMA.......

CITY           SKY/WX    TMP DP  RH WIND       PRES   REMARKS
TULSA          TSTM      62  61  96 SE21G40   29.55R FOG
PONCA CITY     CLOUDY    51  47  86 N17       29.64S
MCALESTER      LGT RAIN  59  57  93 W10       29.61R
OKLAHOMA CITY  DRIZZLE   51  48  89 NW13      29.68R FOG

......IOWA............

CITY           SKY/WX    TMP DP  RH WIND       PRES   REMARKS
DES MOINES     LGT RAIN  42  39  89 NE16G22   30.02R FOG
QUAD CITIES    CLOUDY    42  38  85 NE16      30.00R

......ILLINOIS........

CITY           SKY/WX    TMP DP  RH WIND       PRES   REMARKS
QUINCY         LGT RAIN  44  43  96 N10       29.92R
CHICAGO        HVY RAIN  44  41  89 NE24G36   29.99F FOG



USA.gov is the U.S. government's official web portal to all federal, state and local government web resources and services.